Location: Kershaw
(34.5481°N, 80.5823°W)
Time: 19:56:55
(UTC+00:00)

Vanguard 1 Rocket - Pass Details

Date: 02 October 2022
Orbit: 650 x 4225 km, 34.3° (Epoch: 01 December)

Event Time Altitude Azimuth Distance (km) Brightness Sun altitude
Rises 21:42:13 0° 207° (SSW) 8,354 13.0 15.9°
Reaches altitude 10° 21:49:03 10° 199° (SSW) 7,418 12.6 14.6°
Maximum altitude 22:10:17 34° 144° (SE) 5,002 11.0 10.3°
Drops below altitude 10° 22:25:31 10° 87° (E) 5,470 10.8 7.2°
Sets 22:29:26 0° 78° (ENE) 6,040 10.9 6.4°
